#timestamp,LO_Frequency,Hit,StdDev 
1646154015.5,286047001.0,N
1646154035.3,286047000.4,N
1646154055.2,286047000.6,N
1646154075.0,286047001.2,N
1646154075.9,286047001.2,N
1646154095.7,286047000.3,N
1646154115.6,286047000.0,N
1646154135.4,286047000.0,N
1646154155.3,286047000.2,N
1646154175.1,286047000.1,N
1646154195.8,286047000.2,N
1646154215.7,286047000.2,N
1646154235.5,286047000.2,N
1646154255.4,286047002.5,N
1646154275.2,286046999.7,N
1646154295.0,286047000.0,N
1646154295.9,286047000.0,N
1646154315.8,286047000.8,N
1646154335.6,286047001.1,N
1646154355.4,286047000.4,N
1646154375.3,286047000.7,N
1646154395.1,286047000.1,N
1646154415.9,286047001.6,N
1646154435.7,286047001.4,N
1646154455.5,286046999.8,N
1646154475.4,286047000.4,N
1646154495.2,286047000.9,N
1646154515.1,286047004.3,Y
1646154516.0,286047004.3,P
1646154535.8,286047002.6,N
1646154555.6,286047002.3,N
1646154575.5,286047002.4,N
1646154595.3,286047004.2,Y
1646154615.2,286047000.4,P
1646154635.9,286047000.6,N
1646154655.7,286047001.0,N
1646154675.6,286047000.7,N
1646154695.4,286046999.4,N
1646154715.2,286047000.8,N
1646154735.1,286047001.2,N
1646154736.0,286047001.2,N
1646154755.8,286046999.6,N
1646154775.7,286046996.8,Y
1646154795.5,286046995.5,P
1646154815.3,286046997.5,N
1646154835.2,286046996.9,N
1646154855.0,286046997.6,N
1646154855.9,286046997.6,N
1646154875.8,286046997.2,N
1646154895.6,286046996.7,N
1646154915.4,286046997.5,N
1646154935.3,286046997.8,N
1646154955.1,286046996.5,N
1646154956.0,286046996.5,N
1646154975.8,286046999.1,N
1646154995.7,286046999.2,N
1646155015.5,286046996.5,N
1646155035.3,286046996.8,N
1646155055.2,286046997.0,N
1646155075.0,286046995.8,Y
1646155075.9,286046995.8,P
1646155095.8,286046997.2,P
1646155115.6,286046997.4,P
1646155135.4,286046996.8,Y
1646155155.3,286047002.4,P
1646155175.1,286047002.3,N
1646155195.9,286046999.8,N
1646155215.7,286047002.0,N
1646155235.5,286047001.6,N
1646155255.4,286047001.3,N
1646155275.2,286047001.4,N
1646155295.0,286047001.5,N
1646155295.9,286047001.5,N
1646155315.8,286047002.6,N
1646155335.6,286047002.2,N
1646155355.5,286047001.8,N
1646155375.3,286047004.4,Y
1646155395.1,286047002.1,P
1646155415.9,286046999.9,N
1646155435.7,286047002.7,N
1646155455.5,286046998.1,N
1646155475.4,286046999.9,N
1646155495.2,286047001.7,N
1646155515.1,286047002.2,N
1646155516.0,286047002.2,N
1646155535.8,286047002.1,N
1646155555.6,286047003.7,N
1646155575.5,286047003.3,N
1646155595.3,286047004.3,N
1646155615.1,286047004.4,N
1646155635.9,286047001.5,N
1646155685.8,286047003.6,E
1646155695.7,286047004.4,N
1646155715.5,286047000.4,P
1646155735.3,286047001.1,N
1646155755.2,286047001.0,N
1646155775.0,286046998.6,N
1646155775.9,286046998.6,N
1646155795.8,286046998.2,N
1646155815.6,286046999.1,N
1646155835.4,286046998.7,N
1646155855.3,286046999.5,N
1646155875.1,286046997.5,N
1646155895.8,286046996.6,N
1646155915.7,286046999.2,N
1646155935.5,286046998.8,N
1646155955.4,286046998.2,N
1646155975.2,286046998.8,N
1646155995.0,286046999.5,N
1646155995.9,286046999.5,N
1646156015.8,286046998.8,N
1646156035.6,286046996.6,N
1646156055.4,286046999.1,N
1646156075.3,286046999.2,N
1646156095.1,286046999.2,N
1646156115.9,286046999.0,N
1646156135.7,286046999.0,N
1646156155.5,286046999.5,N
1646156175.4,286046999.0,N
1646156195.2,286046997.2,N
1646156215.0,286046996.8,N
1646156215.9,286046996.8,N
1646156235.8,286046998.0,N
1646156255.6,286046995.7,Y
1646156275.5,286046999.5,P
1646156295.3,286047000.8,N
1646156315.1,286046998.4,N
1646156335.9,286046998.7,N
1646156355.7,286046998.8,N
1646156375.5,286046999.0,N
1646156395.4,286046998.4,N
1646156415.2,286046999.2,N
1646156435.1,286046998.7,N
1646156436.0,286046998.7,N
1646156455.8,286046999.6,N
1646156475.6,286046999.0,N
1646156495.5,286046998.6,N
1646156515.3,286047001.2,N
1646156535.1,286046996.6,Y
1646156555.9,286046999.2,P
1646156575.7,286046996.6,P
1646156595.6,286046998.7,N
1646156615.4,286046998.4,N
1646156635.2,286046998.3,N
1646156655.1,286047001.0,N
1646156656.0,286047001.0,N
1646156675.8,286046998.9,N
1646156695.6,286046999.9,N
1646156715.5,286047001.0,N
1646156735.3,286046998.5,N
1646156755.2,286046998.8,N
1646156775.9,286046998.2,N
1646156795.7,286046998.8,N
1646156815.6,286046998.7,N
1646156835.4,286046998.9,N
1646156855.2,286047001.1,N
1646156875.1,286046998.7,N
1646156876.0,286046998.7,N
1646156895.8,286046998.2,N
1646156915.7,286046997.2,N
1646156935.5,286046999.1,N
1646156955.3,286046998.2,N
1646156975.2,286046999.0,N
1646156995.0,286047001.2,N
1646156995.9,286047001.2,N
1646157015.7,286047000.2,N
1646157035.6,286047002.0,N
1646157055.4,286047000.5,N
1646157075.3,286047000.0,N
1646157095.1,286047001.0,N
1646157096.0,286047001.0,N
1646157115.8,286047000.8,N
1646157135.7,286047002.7,N
1646157185.5,286047001.0,E
1646157195.4,286046998.2,N
1646157215.3,286046998.1,P
1646157235.1,286047001.2,P
1646157255.9,286047001.2,N
1646157275.7,286046998.6,N
1646157295.5,286046999.3,N
1646157315.4,286046998.9,N
1646157335.2,286046999.0,N
1646157355.0,286046999.0,N
1646157355.9,286046999.0,N
1646157375.8,286046999.5,N
1646157395.6,286046998.3,N
1646157415.5,286047001.2,N
1646157435.3,286046999.2,N
1646157455.1,286046999.3,N
1646157475.9,286046998.9,N
1646157495.7,286046998.8,N
1646157515.6,286046996.6,Y
1646157535.4,286046998.9,P
1646157555.2,286047000.4,N
1646157575.1,286047000.3,N
1646157576.0,286047000.3,N
1646157595.8,286047002.2,Y
